Tracking 29777 objects as of 6-Oct-2024
HD Live streaming from Space Station
objects crossing your sky now

STARLINK-5679

Track STARLINK-5679 now!
10-day predictions
STARLINK-5679 is classified as:


NORAD ID: 55467
Int'l Code: 2023-015U
Perigee: 565.3 km
Apogee: 567.1 km
Inclination: 43.0 °
Period: 95.8 minutes
Semi major axis: 6937 km
RCS: Unknown
Launch date: February 2, 2023
Source: United States (US)
Launch site: AIR FORCE EASTERN TEST RANGE (AFETR)
Your satellite tracking list
Your tracking list is empty




NASA's NSSDC Master Catalog

Two Line Element Set (TLE):
1 55467U 23015U   24280.36155217  .00000227  00000-0  31871-4 0  9999
2 55467  43.0042 267.8684 0001281 262.6573  97.4124 15.02532842 92635
Source of the keplerian elements: AFSPC